Location: Kawakawa
(35.3830°S, 174.0670°E)
Time: 18:40:28
(UTC+13:00)

Altair - Pass Details

Date: 15 December 2019
Orbit: 1502 x 1682 km, 47.2° (Epoch: 17 January)

Event Time Altitude Azimuth Distance (km) Brightness Sun altitude
Rises 07:03:53 0° 342° (NNW) 4,668 9.7 10.4°
Reaches altitude 10° 07:07:16 10° 352° (N) 3,713 9.3 11.1°
Maximum altitude 07:15:22 33° 51° (NE) 2,414 9.1 12.6°
Drops below altitude 10° 07:23:45 10° 111° (ESE) 3,862 12.9 14.2°
Sets 07:27:18 0° 119° (ESE) 4,878 11.9 14.9°
